Time,TemperatureF,DewpointF,PressureIn,WindDirection,WindDirectionDegrees,WindSpeedMPH,WindSpeedGustMPH,Humidity,HourlyPrecipIn,Conditions,Clouds,dailyrainin,SoftwareType,DateUTC
2013-01-08 00:00:00,56.5,51.4,29.69,NNE,23,6.3,7.4,83,0.00,,,0.00,WUHU216HW,2013-01-08 05:00:00,
2013-01-08 00:01:00,56.5,51.4,29.69,NNE,23,6.3,7.4,83,0.00,,,0.00,WUHU216HW,2013-01-08 05:01:00,
2013-01-08 00:02:00,56.7,51.6,29.69,NNE,23,4.7,7.4,83,0.00,,,0.00,WUHU216HW,2013-01-08 05:02:00,
2013-01-08 00:03:00,56.7,51.6,29.69,NNE,23,4.7,7.4,83,0.00,,,0.00,WUHU216HW,2013-01-08 05:03:00,
2013-01-08 00:08:00,56.7,51.6,29.71,East,90,1.8,6.3,83,0.00,,,0.00,WUHU216HW,2013-01-08 05:08:00,
2013-01-08 00:13:00,56.9,51.8,29.70,NNE,23,7.6,7.6,83,0.00,,,0.00,WUHU216HW,2013-01-08 05:13:00,
2013-01-08 00:18:00,56.9,51.8,29.70,ENE,68,4.3,7.6,83,0.00,,,0.00,WUHU216HW,2013-01-08 05:18:00,
2013-01-08 00:23:00,56.9,51.8,29.70,ENE,68,0.7,7.6,83,0.00,,,0.00,WUHU216HW,2013-01-08 05:23:00,
2013-01-08 00:28:00,56.9,51.8,29.70,North,0,0.0,4.3,83,0.00,,,0.00,WUHU216HW,2013-01-08 05:28:00,
2013-01-08 00:33:00,57.1,51.9,29.70,NE,45,3.8,3.8,83,0.00,,,0.00,WUHU216HW,2013-01-08 05:33:00,
2013-01-08 00:38:00,57.1,51.9,29.69,NE,45,3.8,3.8,83,0.00,,,0.00,WUHU216HW,2013-01-08 05:38:00,
2013-01-08 00:43:00,57.1,51.9,29.69,NNE,23,2.9,3.8,83,0.00,,,0.00,WUHU216HW,2013-01-08 05:43:00,
2013-01-08 00:48:00,57.1,51.9,29.69,NNE,23,7.4,7.4,83,0.00,,,0.00,WUHU216HW,2013-01-08 05:48:00,
2013-01-08 00:53:00,56.9,51.8,29.69,NE,45,7.2,7.4,83,0.00,,,0.00,WUHU216HW,2013-01-08 05:53:00,
2013-01-08 00:58:00,56.9,51.8,29.69,North,0,0.0,7.4,83,0.00,,,0.00,WUHU216HW,2013-01-08 05:58:00,
2013-01-08 01:03:00,56.7,51.6,29.69,NNE,23,8.7,8.7,83,0.00,,,0.00,WUHU216HW,2013-01-08 06:03:00,
2013-01-08 01:08:00,56.7,51.6,29.68,NNE,23,7.4,8.7,83,0.00,,,0.00,WUHU216HW,2013-01-08 06:08:00,
2013-01-08 01:13:00,56.7,51.6,29.68,NNE,23,5.8,8.7,83,0.00,,,0.00,WUHU216HW,2013-01-08 06:13:00,
2013-01-08 01:18:00,56.5,51.4,29.68,NNE,23,5.4,7.4,83,0.00,,,0.00,WUHU216HW,2013-01-08 06:18:00,
2013-01-08 01:23:00,56.5,51.0,29.69,North,0,0.0,7.4,82,0.00,,,0.00,WUHU216HW,2013-01-08 06:23:00,
2013-01-08 01:28:00,56.5,51.0,29.69,North,0,0.0,5.4,82,0.00,,,0.00,WUHU216HW,2013-01-08 06:28:00,
2013-01-08 01:33:00,56.5,51.4,29.68,North,0,0.0,0.0,83,0.00,,,0.00,WUHU216HW,2013-01-08 06:33:00,
2013-01-08 01:38:00,56.5,51.4,29.69,North,0,0.0,0.0,83,0.00,,,0.00,WUHU216HW,2013-01-08 06:38:00,
2013-01-08 01:43:00,56.5,51.4,29.69,North,0,0.0,0.0,83,0.00,,,0.00,WUHU216HW,2013-01-08 06:43:00,
2013-01-08 01:48:00,56.5,51.4,29.68,North,0,0.0,0.0,83,0.00,,,0.00,WUHU216HW,2013-01-08 06:48:00,
2013-01-08 01:53:00,56.5,51.4,29.68,North,0,0.0,0.0,83,0.00,,,0.00,WUHU216HW,2013-01-08 06:53:00,
2013-01-08 01:58:00,56.5,51.4,29.68,North,0,0.0,0.0,83,0.00,,,0.00,WUHU216HW,2013-01-08 06:58:00,
2013-01-08 02:03:00,56.5,51.0,29.68,North,0,0.0,0.0,82,0.00,,,0.00,WUHU216HW,2013-01-08 07:03:00,
2013-01-08 02:08:00,56.3,51.2,29.69,North,0,0.0,0.0,83,0.00,,,0.00,WUHU216HW,2013-01-08 07:08:00,
2013-01-08 02:13:00,56.3,51.2,29.68,North,0,0.0,0.0,83,0.00,,,0.00,WUHU216HW,2013-01-08 07:13:00,
2013-01-08 02:18:00,56.3,51.2,29.67,North,0,0.0,0.0,83,0.00,,,0.00,WUHU216HW,2013-01-08 07:18:00,
2013-01-08 02:23:00,56.3,51.2,29.67,North,0,0.0,0.0,83,0.00,,,0.00,WUHU216HW,2013-01-08 07:23:00,
2013-01-08 02:28:00,56.3,51.2,29.67,North,0,0.0,0.0,83,0.00,,,0.00,WUHU216HW,2013-01-08 07:28:00,
2013-01-08 02:33:00,56.3,51.2,29.66,North,0,0.0,0.0,83,0.00,,,0.00,WUHU216HW,2013-01-08 07:33:00,
2013-01-08 02:38:00,56.3,51.2,29.67,North,0,0.0,0.0,83,0.00,,,0.00,WUHU216HW,2013-01-08 07:38:00,
2013-01-08 02:43:00,56.3,51.5,29.67,North,0,0.0,0.0,84,0.00,,,0.00,WUHU216HW,2013-01-08 07:43:00,
2013-01-08 02:48:00,56.5,51.4,29.67,NNE,23,4.0,5.4,83,0.00,,,0.00,WUHU216HW,2013-01-08 07:48:00,
2013-01-08 02:53:00,56.5,51.7,29.66,North,0,3.6,5.4,84,0.00,,,0.00,WUHU216HW,2013-01-08 07:53:00,
2013-01-08 02:58:00,56.5,51.4,29.67,NNE,23,4.3,4.3,83,0.00,,,0.00,WUHU216HW,2013-01-08 07:58:00,
2013-01-08 03:03:00,56.5,51.7,29.67,NNE,23,4.7,4.7,84,0.00,,,0.00,WUHU216HW,2013-01-08 08:03:00,
2013-01-08 03:08:00,56.5,51.7,29.67,North,0,6.0,6.0,84,0.00,,,0.00,WUHU216HW,2013-01-08 08:08:00,
2013-01-08 03:13:00,56.5,52.0,29.67,North,0,2.7,6.0,85,0.00,,,0.00,WUHU216HW,2013-01-08 08:13:00,
2013-01-08 03:18:00,56.5,51.7,29.67,North,0,1.6,6.0,84,0.00,,,0.00,WUHU216HW,2013-01-08 08:18:00,
2013-01-08 03:23:00,56.5,52.0,29.67,North,0,2.7,2.7,85,0.00,,,0.00,WUHU216HW,2013-01-08 08:23:00,
2013-01-08 03:28:00,56.5,51.7,29.68,North,0,2.2,2.7,84,0.00,,,0.00,WUHU216HW,2013-01-08 08:28:00,
2013-01-08 03:33:00,56.5,51.7,29.67,North,0,4.0,4.0,84,0.00,,,0.00,WUHU216HW,2013-01-08 08:33:00,
2013-01-08 03:38:00,56.5,51.7,29.68,North,0,2.9,4.0,84,0.00,,,0.00,WUHU216HW,2013-01-08 08:38:00,
2013-01-08 03:43:00,56.5,51.7,29.68,North,0,3.4,4.0,84,0.00,,,0.00,WUHU216HW,2013-01-08 08:43:00,
2013-01-08 03:48:00,56.5,51.7,29.68,NNE,23,4.5,4.5,84,0.00,,,0.00,WUHU216HW,2013-01-08 08:48:00,
2013-01-08 03:53:00,56.5,51.7,29.68,North,0,4.7,4.7,84,0.00,,,0.00,WUHU216HW,2013-01-08 08:53:00,
2013-01-08 03:58:00,56.7,51.8,29.67,North,0,3.8,4.7,84,0.00,,,0.00,WUHU216HW,2013-01-08 08:58:00,
2013-01-08 04:03:00,56.7,51.8,29.67,NNE,23,5.1,5.1,84,0.00,,,0.00,WUHU216HW,2013-01-08 09:03:00,
2013-01-08 04:08:00,56.7,51.8,29.67,NE,45,4.0,5.1,84,0.00,,,0.00,WUHU216HW,2013-01-08 09:08:00,
2013-01-08 04:13:00,56.7,51.8,29.67,NNE,23,4.0,5.1,84,0.00,,,0.00,WUHU216HW,2013-01-08 09:13:00,
2013-01-08 04:18:00,56.9,52.0,29.67,North,0,4.7,4.7,84,0.00,,,0.00,WUHU216HW,2013-01-08 09:18:00,
2013-01-08 04:23:00,56.9,52.0,29.66,NNE,23,6.3,6.3,84,0.00,,,0.00,WUHU216HW,2013-01-08 09:23:00,
2013-01-08 04:28:00,56.9,52.0,29.67,NNE,23,5.8,6.3,84,0.00,,,0.00,WUHU216HW,2013-01-08 09:28:00,
2013-01-08 04:33:00,56.9,52.0,29.66,NNE,23,4.5,6.3,84,0.00,,,0.00,WUHU216HW,2013-01-08 09:33:00,
2013-01-08 04:38:00,56.9,52.0,29.66,North,0,5.8,5.8,84,0.00,,,0.00,WUHU216HW,2013-01-08 09:38:00,
2013-01-08 04:43:00,57.1,52.2,29.66,North,0,6.5,6.5,84,0.00,,,0.00,WUHU216HW,2013-01-08 09:43:00,
2013-01-08 04:48:00,57.1,52.2,29.66,North,0,3.8,6.5,84,0.00,,,0.00,WUHU216HW,2013-01-08 09:48:00,
2013-01-08 04:53:00,57.1,52.2,29.67,NNE,23,5.1,6.5,84,0.00,,,0.00,WUHU216HW,2013-01-08 09:53:00,
2013-01-08 04:58:00,57.1,52.2,29.66,NNE,23,3.6,5.1,84,0.00,,,0.00,WUHU216HW,2013-01-08 09:58:00,
2013-01-08 05:03:00,56.9,52.0,29.67,North,0,5.1,5.1,84,0.00,,,0.00,WUHU216HW,2013-01-08 10:03:00,
2013-01-08 05:08:00,56.9,52.0,29.67,North,0,4.7,5.1,84,0.00,,,0.00,WUHU216HW,2013-01-08 10:08:00,
2013-01-08 05:13:00,56.9,52.0,29.67,NNE,23,4.0,5.1,84,0.00,,,0.00,WUHU216HW,2013-01-08 10:13:00,
2013-01-08 05:18:00,56.9,52.0,29.67,North,0,5.6,5.6,84,0.00,,,0.00,WUHU216HW,2013-01-08 10:18:00,
2013-01-08 05:23:00,56.9,52.0,29.67,North,0,4.3,5.6,84,0.00,,,0.00,WUHU216HW,2013-01-08 10:23:00,
2013-01-08 05:28:00,56.9,52.0,29.67,North,0,4.0,5.6,84,0.00,,,0.00,WUHU216HW,2013-01-08 10:28:00,
2013-01-08 05:33:00,56.9,52.0,29.68,NNE,23,4.9,4.9,84,0.00,,,0.00,WUHU216HW,2013-01-08 10:33:00,
2013-01-08 05:38:00,56.9,52.0,29.68,North,0,5.1,5.1,84,0.00,,,0.00,WUHU216HW,2013-01-08 10:38:00,
2013-01-08 05:43:00,57.1,52.2,29.68,NNE,23,3.8,5.1,84,0.00,,,0.00,WUHU216HW,2013-01-08 10:43:00,
2013-01-08 05:48:00,57.1,52.2,29.69,NNE,23,4.5,5.1,84,0.00,,,0.00,WUHU216HW,2013-01-08 10:48:00,
2013-01-08 05:53:00,57.1,52.6,29.68,North,0,2.2,4.5,85,0.00,,,0.00,WUHU216HW,2013-01-08 10:53:00,
2013-01-08 05:58:00,57.1,52.6,29.69,North,0,0.0,4.5,85,0.00,,,0.00,WUHU216HW,2013-01-08 10:58:00,
2013-01-08 06:03:00,57.2,52.7,29.69,North,0,0.0,2.2,85,0.00,,,0.00,WUHU216HW,2013-01-08 11:03:00,
2013-01-08 06:08:00,57.2,52.7,29.68,North,0,0.0,0.0,85,0.00,,,0.00,WUHU216HW,2013-01-08 11:08:00,
2013-01-08 06:13:00,57.4,52.9,29.69,North,0,0.0,0.0,85,0.00,,,0.00,WUHU216HW,2013-01-08 11:13:00,
2013-01-08 06:18:00,57.2,52.4,29.68,North,0,0.0,0.0,84,0.00,,,0.00,WUHU216HW,2013-01-08 11:18:00,
2013-01-08 06:23:00,57.2,52.4,29.69,North,0,0.0,0.0,84,0.00,,,0.00,WUHU216HW,2013-01-08 11:23:00,
2013-01-08 06:28:00,57.2,52.4,29.68,North,0,0.0,0.0,84,0.00,,,0.00,WUHU216HW,2013-01-08 11:28:00,
2013-01-08 06:33:00,57.2,52.4,29.69,North,0,0.0,0.0,84,0.00,,,0.00,WUHU216HW,2013-01-08 11:33:00,
2013-01-08 06:38:00,57.2,52.4,29.68,North,0,0.0,0.0,84,0.00,,,0.00,WUHU216HW,2013-01-08 11:38:00,
2013-01-08 06:43:00,57.2,52.4,29.69,North,0,0.0,0.0,84,0.00,,,0.00,WUHU216HW,2013-01-08 11:43:00,
2013-01-08 06:48:00,57.1,52.2,29.69,North,0,0.0,0.0,84,0.00,,,0.00,WUHU216HW,2013-01-08 11:48:00,
2013-01-08 06:53:00,57.1,52.6,29.69,North,0,0.0,0.0,85,0.00,,,0.00,WUHU216HW,2013-01-08 11:53:00,
2013-01-08 06:58:00,57.1,52.6,29.69,North,0,0.0,0.0,85,0.00,,,0.00,WUHU216HW,2013-01-08 11:58:00,
2013-01-08 07:03:00,57.1,52.6,29.69,North,0,0.0,0.0,85,0.00,,,0.00,WUHU216HW,2013-01-08 12:03:00,
2013-01-08 07:08:00,56.9,52.4,29.70,North,0,0.0,0.0,85,0.00,,,0.00,WUHU216HW,2013-01-08 12:08:00,
2013-01-08 07:13:00,56.9,52.4,29.70,North,0,0.0,0.0,85,0.00,,,0.00,WUHU216HW,2013-01-08 12:13:00,
2013-01-08 07:18:00,57.1,52.6,29.71,North,0,0.0,0.0,85,0.00,,,0.00,WUHU216HW,2013-01-08 12:18:00,
2013-01-08 07:23:00,57.2,52.7,29.71,North,0,0.0,0.0,85,0.00,,,0.00,WUHU216HW,2013-01-08 12:23:00,
2013-01-08 07:28:00,57.2,52.7,29.70,North,0,0.0,0.0,85,0.00,,,0.00,WUHU216HW,2013-01-08 12:28:00,
2013-01-08 07:33:00,57.4,52.9,29.70,North,0,0.0,0.0,85,0.00,,,0.00,WUHU216HW,2013-01-08 12:33:00,
2013-01-08 07:38:00,57.4,52.9,29.71,North,0,0.0,0.0,85,0.00,,,0.00,WUHU216HW,2013-01-08 12:38:00,
2013-01-08 07:43:00,57.2,52.7,29.71,North,0,0.0,0.0,85,0.00,,,0.00,WUHU216HW,2013-01-08 12:43:00,
2013-01-08 07:48:00,57.2,52.7,29.72,North,0,0.0,0.0,85,0.00,,,0.00,WUHU216HW,2013-01-08 12:48:00,
2013-01-08 07:53:00,57.4,52.9,29.72,North,0,0.0,0.0,85,0.00,,,0.00,WUHU216HW,2013-01-08 12:53:00,
2013-01-08 07:58:00,57.4,52.9,29.71,North,0,0.0,0.0,85,0.00,,,0.00,WUHU216HW,2013-01-08 12:58:00,
2013-01-08 08:03:00,57.4,52.9,29.71,North,0,0.0,0.0,85,0.00,,,0.00,WUHU216HW,2013-01-08 13:03:00,
2013-01-08 08:08:00,57.4,53.3,29.71,North,0,0.0,0.0,86,0.00,,,0.00,WUHU216HW,2013-01-08 13:08:00,
2013-01-08 08:13:00,57.6,53.5,29.72,North,0,0.0,0.0,86,0.00,,,0.00,WUHU216HW,2013-01-08 13:13:00,
2013-01-08 08:18:00,57.6,53.5,29.72,North,0,0.0,0.0,86,0.00,,,0.00,WUHU216HW,2013-01-08 13:18:00,
2013-01-08 08:23:00,57.8,53.7,29.72,North,0,0.0,0.0,86,0.00,,,0.00,WUHU216HW,2013-01-08 13:23:00,
2013-01-08 08:28:00,58.7,54.6,29.72,NNE,23,5.1,5.1,86,0.00,,,0.00,WUHU216HW,2013-01-08 13:28:00,
2013-01-08 08:33:00,59.0,54.9,29.72,NNE,23,5.1,5.1,86,0.00,,,0.00,WUHU216HW,2013-01-08 13:33:00,
2013-01-08 08:38:00,59.2,55.1,29.72,NE,45,3.1,5.1,86,0.00,,,0.00,WUHU216HW,2013-01-08 13:38:00,
2013-01-08 08:43:00,59.4,54.9,29.72,NE,45,3.1,5.1,85,0.00,,,0.00,WUHU216HW,2013-01-08 13:43:00,
2013-01-08 08:48:00,59.6,55.1,29.73,NNE,23,3.6,3.6,85,0.00,,,0.00,WUHU216HW,2013-01-08 13:48:00,
2013-01-08 08:53:00,59.6,55.1,29.74,NNE,23,3.6,3.6,85,0.00,,,0.00,WUHU216HW,2013-01-08 13:53:00,
2013-01-08 08:58:00,59.6,55.1,29.73,NNE,23,3.6,3.6,85,0.00,,,0.00,WUHU216HW,2013-01-08 13:58:00,
2013-01-08 09:03:00,60.5,56.0,29.73,North,0,0.0,3.6,85,0.00,,,0.00,WUHU216HW,2013-01-08 14:03:00,
2013-01-08 09:08:00,60.7,56.2,29.74,North,0,0.0,3.6,85,0.00,,,0.00,WUHU216HW,2013-01-08 14:08:00,
2013-01-08 09:13:00,61.2,56.3,29.73,North,0,0.0,0.0,84,0.00,,,0.00,WUHU216HW,2013-01-08 14:13:00,
2013-01-08 09:18:00,61.4,56.5,29.74,North,0,0.0,0.0,84,0.00,,,0.00,WUHU216HW,2013-01-08 14:18:00,
2013-01-08 09:23:00,61.4,56.5,29.74,North,0,0.0,0.0,84,0.00,,,0.00,WUHU216HW,2013-01-08 14:23:00,
2013-01-08 09:28:00,61.4,56.5,29.74,North,0,0.0,0.0,84,0.00,,,0.00,WUHU216HW,2013-01-08 14:28:00,
2013-01-08 09:33:00,62.1,56.9,29.73,North,0,0.0,0.0,83,0.00,,,0.00,WUHU216HW,2013-01-08 14:33:00,
2013-01-08 09:38:00,62.1,56.9,29.74,North,0,0.0,0.0,83,0.00,,,0.00,WUHU216HW,2013-01-08 14:38:00,
2013-01-08 09:43:00,62.3,57.1,29.73,North,0,0.0,0.0,83,0.00,,,0.00,WUHU216HW,2013-01-08 14:43:00,
2013-01-08 09:48:00,62.8,57.5,29.73,North,0,0.0,0.0,83,0.00,,,0.00,WUHU216HW,2013-01-08 14:48:00,
2013-01-08 09:53:00,63.0,57.7,29.74,North,0,0.0,0.0,83,0.00,,,0.00,WUHU216HW,2013-01-08 14:53:00,
2013-01-08 09:58:00,63.4,58.1,29.74,North,0,0.0,0.0,83,0.00,,,0.00,WUHU216HW,2013-01-08 14:58:00,
2013-01-08 10:03:00,63.5,58.2,29.74,North,0,0.0,0.0,83,0.00,,,0.00,WUHU216HW,2013-01-08 15:03:00,
2013-01-08 10:08:00,63.7,58.2,29.74,North,0,0.0,0.0,82,0.00,,,0.00,WUHU216HW,2013-01-08 15:08:00,
2013-01-08 10:13:00,64.1,58.5,29.74,North,0,0.0,0.0,82,0.00,,,0.00,WUHU216HW,2013-01-08 15:13:00,
2013-01-08 10:18:00,64.4,58.9,29.74,North,0,0.0,0.0,82,0.00,,,0.00,WUHU216HW,2013-01-08 15:18:00,
2013-01-08 10:23:00,65.3,60.0,29.74,North,0,0.0,4.5,83,0.00,,,0.00,WUHU216HW,2013-01-08 15:23:00,
2013-01-08 10:28:00,66.2,60.9,29.74,North,0,0.0,4.5,83,0.00,,,0.00,WUHU216HW,2013-01-08 15:28:00,
2013-01-08 10:33:00,66.6,60.9,29.74,North,0,0.0,0.0,82,0.00,,,0.00,WUHU216HW,2013-01-08 15:33:00,
2013-01-08 10:38:00,67.3,61.7,29.75,North,0,0.0,0.0,82,0.00,,,0.00,WUHU216HW,2013-01-08 15:38:00,
2013-01-08 10:43:00,68.4,62.1,29.74,North,0,0.0,0.0,80,0.00,,,0.00,WUHU216HW,2013-01-08 15:43:00,
2013-01-08 10:48:00,68.2,61.6,29.74,North,0,0.0,0.0,79,0.00,,,0.00,WUHU216HW,2013-01-08 15:48:00,
2013-01-08 10:53:00,68.4,61.7,29.74,North,0,0.0,0.0,79,0.00,,,0.00,WUHU216HW,2013-01-08 15:53:00,
2013-01-08 10:58:00,68.2,61.6,29.74,North,0,0.0,0.0,79,0.00,,,0.00,WUHU216HW,2013-01-08 15:58:00,
2013-01-08 11:03:00,68.0,61.4,29.73,North,0,0.0,0.0,79,0.00,,,0.00,WUHU216HW,2013-01-08 16:03:00,
2013-01-08 11:08:00,68.2,61.6,29.73,North,0,0.0,0.0,79,0.00,,,0.00,WUHU216HW,2013-01-08 16:08:00,
2013-01-08 11:13:00,68.2,61.6,29.73,North,0,0.0,0.0,79,0.00,,,0.00,WUHU216HW,2013-01-08 16:13:00,
2013-01-08 11:18:00,69.5,62.6,29.73,North,0,0.0,0.0,79,0.00,,,0.00,WUHU216HW,2013-01-08 16:18:00,
2013-01-08 11:23:00,69.7,62.1,29.73,North,0,0.0,0.0,77,0.00,,,0.00,WUHU216HW,2013-01-08 16:23:00,
2013-01-08 11:28:00,69.8,62.2,29.72,North,0,0.0,0.0,77,0.00,,,0.00,WUHU216HW,2013-01-08 16:28:00,
2013-01-08 11:33:00,70.0,62.4,29.72,North,0,0.0,0.0,77,0.00,,,0.00,WUHU216HW,2013-01-08 16:33:00,
2013-01-08 11:38:00,71.3,63.6,29.72,NNE,23,7.8,7.8,77,0.00,,,0.00,WUHU216HW,2013-01-08 16:38:00,
2013-01-08 11:43:00,71.8,63.8,29.72,North,0,0.0,7.8,76,0.00,,,0.00,WUHU216HW,2013-01-08 16:43:00,
2013-01-08 11:48:00,72.2,63.5,29.72,NNE,23,6.9,7.8,74,0.00,,,0.00,WUHU216HW,2013-01-08 16:48:00,
2013-01-08 11:53:00,72.5,64.2,29.72,NNE,23,9.2,9.2,75,0.00,,,0.00,WUHU216HW,2013-01-08 16:53:00,
2013-01-08 11:58:00,72.5,64.2,29.72,NNE,23,7.2,9.2,75,0.00,,,0.00,WUHU216HW,2013-01-08 16:58:00,
2013-01-08 12:03:00,72.0,63.3,29.71,North,0,9.2,9.2,74,0.00,,,0.00,WUHU216HW,2013-01-08 17:03:00,
2013-01-08 12:08:00,71.6,62.9,29.71,North,0,0.0,9.2,74,0.00,,,0.00,WUHU216HW,2013-01-08 17:08:00,
2013-01-08 12:13:00,71.5,62.4,29.72,NNE,23,6.9,9.2,73,0.00,,,0.00,WUHU216HW,2013-01-08 17:13:00,
2013-01-08 12:18:00,71.1,62.0,29.72,NNE,23,6.9,6.9,73,0.00,,,0.00,WUHU216HW,2013-01-08 17:18:00,
2013-01-08 12:23:00,70.9,62.2,29.72,NNE,23,9.6,9.6,74,0.00,,,0.00,WUHU216HW,2013-01-08 17:23:00,
2013-01-08 12:28:00,70.6,61.8,29.71,NNE,23,10.3,10.3,74,0.00,,,0.00,WUHU216HW,2013-01-08 17:28:00,
2013-01-08 12:33:00,70.0,61.3,29.71,NE,45,7.2,10.3,74,0.00,,,0.00,WUHU216HW,2013-01-08 17:33:00,
2013-01-08 12:38:00,69.3,61.0,29.70,NNE,23,9.8,10.3,75,0.00,,,0.00,WUHU216HW,2013-01-08 17:38:00,
2013-01-08 12:43:00,68.8,60.5,29.71,NNE,23,8.5,10.3,75,0.00,,,0.00,WUHU216HW,2013-01-08 17:43:00,
2013-01-08 12:48:00,68.4,60.6,29.69,NNE,23,6.3,10.3,76,0.00,,,0.00,WUHU216HW,2013-01-08 17:48:00,
2013-01-08 12:53:00,67.9,60.0,29.70,NNE,23,12.3,12.3,76,0.00,,,0.00,WUHU216HW,2013-01-08 17:53:00,
2013-01-08 12:58:00,67.3,59.9,29.71,NE,45,7.4,12.3,77,0.00,,,0.00,WUHU216HW,2013-01-08 17:58:00,
2013-01-08 13:03:00,67.1,59.7,29.70,NNE,23,8.5,12.3,77,0.00,,,0.00,WUHU216HW,2013-01-08 18:03:00,
2013-01-08 13:08:00,67.0,59.5,29.70,NNE,23,11.0,12.1,77,0.00,,,0.00,WUHU216HW,2013-01-08 18:08:00,
2013-01-08 13:13:00,66.8,59.8,29.70,NNE,23,12.3,12.3,78,0.00,,,0.00,WUHU216HW,2013-01-08 18:13:00,
2013-01-08 13:18:00,66.8,59.8,29.70,North,0,10.5,12.3,78,0.00,,,0.00,WUHU216HW,2013-01-08 18:18:00,
2013-01-08 13:23:00,67.0,60.0,29.69,NNE,23,7.6,12.3,78,0.00,,,0.00,WUHU216HW,2013-01-08 18:23:00,
2013-01-08 13:28:00,67.0,60.0,29.70,NNE,23,8.7,11.4,78,0.00,,,0.00,WUHU216HW,2013-01-08 18:28:00,
2013-01-08 13:33:00,66.8,59.8,29.70,NNE,23,12.3,12.3,78,0.00,,,0.00,WUHU216HW,2013-01-08 18:33:00,
2013-01-08 13:38:00,66.8,59.8,29.70,NNE,23,10.1,12.3,78,0.00,,,0.00,WUHU216HW,2013-01-08 18:38:00,
2013-01-08 13:43:00,66.6,59.6,29.70,NNE,23,9.4,12.3,78,0.00,,,0.00,WUHU216HW,2013-01-08 18:43:00,
2013-01-08 13:48:00,65.7,58.3,29.69,NNE,23,9.8,10.1,77,0.00,,,0.00,WUHU216HW,2013-01-08 18:48:00,
2013-01-08 13:53:00,65.2,58.2,29.70,NE,45,10.7,10.7,78,0.00,,,0.00,WUHU216HW,2013-01-08 18:53:00,
2013-01-08 13:58:00,65.0,58.3,29.69,North,0,9.2,10.7,79,0.00,,,0.00,WUHU216HW,2013-01-08 18:58:00,
2013-01-08 14:03:00,64.8,58.2,29.70,North,0,4.3,10.7,79,0.00,,,0.00,WUHU216HW,2013-01-08 19:03:00,
2013-01-08 14:08:00,65.2,58.9,29.70,NNE,23,9.4,9.4,80,0.00,,,0.00,WUHU216HW,2013-01-08 19:08:00,
2013-01-08 14:13:00,65.0,58.7,29.70,NNE,23,4.0,9.4,80,0.00,,,0.00,WUHU216HW,2013-01-08 19:13:00,
2013-01-08 14:18:00,64.3,58.0,29.70,North,0,6.3,6.3,80,0.00,,,0.00,WUHU216HW,2013-01-08 19:18:00,
2013-01-08 14:23:00,64.3,58.0,29.70,NNW,338,7.2,7.2,80,0.00,,,0.00,WUHU216HW,2013-01-08 19:23:00,
2013-01-08 14:28:00,64.4,58.5,29.70,NNE,23,6.5,7.2,81,0.00,,,0.00,WUHU216HW,2013-01-08 19:28:00,
2013-01-08 14:33:00,64.6,58.7,29.69,NNE,23,6.5,7.2,81,0.00,,,0.00,WUHU216HW,2013-01-08 19:33:00,
2013-01-08 14:38:00,66.1,60.1,29.69,NE,45,7.4,12.1,81,0.00,,,0.00,WUHU216HW,2013-01-08 19:38:00,
2013-01-08 14:43:00,66.4,59.8,29.69,NNE,23,6.9,12.1,79,0.00,,,0.00,WUHU216HW,2013-01-08 19:43:00,
2013-01-08 14:48:00,66.8,60.1,29.69,SE,135,3.4,7.6,79,0.00,,,0.00,WUHU216HW,2013-01-08 19:48:00,
2013-01-08 14:53:00,65.5,58.9,29.69,NE,45,4.3,11.2,79,0.00,,,0.00,WUHU216HW,2013-01-08 19:53:00,
2013-01-08 14:58:00,63.5,56.9,29.69,NNE,23,3.4,11.2,79,0.00,,,0.00,WUHU216HW,2013-01-08 19:58:00,
2013-01-08 15:03:00,62.6,56.3,29.69,NNE,23,4.9,4.9,80,0.00,,,0.00,WUHU216HW,2013-01-08 20:03:00,
2013-01-08 15:08:00,62.3,56.7,29.69,SE,135,1.6,6.0,82,0.00,,,0.00,WUHU216HW,2013-01-08 20:08:00,
2013-01-08 15:13:00,61.9,56.3,29.69,NNE,23,7.4,7.4,82,0.00,,,0.00,WUHU216HW,2013-01-08 20:13:00,
2013-01-08 15:18:00,61.9,56.7,29.69,NNE,23,6.3,7.4,83,0.00,,,0.00,WUHU216HW,2013-01-08 20:18:00,
2013-01-08 15:23:00,61.6,56.3,29.69,NNE,23,3.6,7.4,83,0.00,,,0.00,WUHU216HW,2013-01-08 20:23:00,
2013-01-08 15:28:00,61.4,56.2,29.69,NNE,23,2.5,6.3,83,0.00,,,0.00,WUHU216HW,2013-01-08 20:28:00,
2013-01-08 15:33:00,61.4,56.2,29.68,NNE,23,2.5,3.6,83,0.00,,,0.00,WUHU216HW,2013-01-08 20:33:00,
2013-01-08 15:38:00,61.4,56.2,29.68,NNE,23,2.5,2.5,83,0.00,,,0.00,WUHU216HW,2013-01-08 20:38:00,
2013-01-08 15:43:00,60.7,55.8,29.68,NE,45,5.1,5.1,84,0.00,,,0.00,WUHU216HW,2013-01-08 20:43:00,
2013-01-08 15:48:00,60.5,55.6,29.66,NNE,23,8.5,8.5,84,0.00,,,0.00,WUHU216HW,2013-01-08 20:48:00,
2013-01-08 15:53:00,60.3,55.8,29.66,NNE,23,5.4,11.6,85,0.00,,,0.00,WUHU216HW,2013-01-08 20:53:00,
2013-01-08 15:58:00,60.5,56.0,29.68,NNE,23,5.1,11.6,85,0.00,,,0.00,WUHU216HW,2013-01-08 20:58:00,
2013-01-08 16:03:00,60.3,55.8,29.69,NE,45,4.3,5.4,85,0.00,,,0.00,WUHU216HW,2013-01-08 21:03:00,
2013-01-08 16:08:00,60.3,55.8,29.67,NE,45,3.1,5.1,85,0.00,,,0.00,WUHU216HW,2013-01-08 21:08:00,
2013-01-08 16:13:00,60.5,56.0,29.64,NNE,23,2.7,5.8,85,0.00,,,0.00,WUHU216HW,2013-01-08 21:13:00,
2013-01-08 16:18:00,60.5,56.0,29.65,NE,45,4.0,5.8,85,0.00,,,0.00,WUHU216HW,2013-01-08 21:18:00,
2013-01-08 16:23:00,60.5,56.0,29.66,NNE,23,5.1,5.1,85,0.00,,,0.00,WUHU216HW,2013-01-08 21:23:00,
2013-01-08 16:28:00,61.2,57.0,29.66,NNE,23,7.8,7.8,86,0.00,,,0.00,WUHU216HW,2013-01-08 21:28:00,
2013-01-08 16:33:00,61.2,56.7,29.63,NNE,23,3.4,7.8,85,0.00,,,0.00,WUHU216HW,2013-01-08 21:33:00,
2013-01-08 16:38:00,60.8,56.3,29.62,NNE,23,4.7,7.8,85,0.00,,,0.00,WUHU216HW,2013-01-08 21:38:00,
2013-01-08 16:43:00,60.5,56.0,29.63,NNE,23,3.4,4.9,85,0.00,,,0.00,WUHU216HW,2013-01-08 21:43:00,
2013-01-08 16:48:00,60.3,55.8,29.63,NE,45,1.6,4.9,85,0.00,,,0.00,WUHU216HW,2013-01-08 21:48:00,
2013-01-08 16:53:00,60.1,55.6,29.62,NNE,23,2.5,3.4,85,0.00,,,0.00,WUHU216HW,2013-01-08 21:53:00,
2013-01-08 16:58:00,60.1,55.6,29.62,NNE,23,5.4,5.4,85,0.00,,,0.00,WUHU216HW,2013-01-08 21:58:00,
2013-01-08 17:03:00,60.1,55.6,29.62,NNE,23,5.4,5.4,85,0.00,,,0.00,WUHU216HW,2013-01-08 22:03:00,
2013-01-08 17:08:00,60.1,55.6,29.61,NNE,23,3.8,5.4,85,0.00,,,0.00,WUHU216HW,2013-01-08 22:08:00,
2013-01-08 17:13:00,60.3,55.8,29.62,NE,45,4.3,5.4,85,0.00,,,0.00,WUHU216HW,2013-01-08 22:13:00,
2013-01-08 17:18:00,60.3,56.2,29.63,NNE,23,4.7,4.7,86,0.00,,,0.00,WUHU216HW,2013-01-08 22:18:00,
2013-01-08 17:23:00,60.1,56.0,29.61,NE,45,2.7,4.7,86,0.00,,,0.00,WUHU216HW,2013-01-08 22:23:00,
2013-01-08 17:28:00,59.8,55.3,29.62,NNE,23,3.4,4.7,85,0.00,,,0.00,WUHU216HW,2013-01-08 22:28:00,
2013-01-08 17:33:00,59.8,55.3,29.63,NNE,23,3.4,3.4,85,0.00,,,0.00,WUHU216HW,2013-01-08 22:33:00,
2013-01-08 17:38:00,59.8,55.3,29.62,NNE,23,3.4,3.4,85,0.00,,,0.00,WUHU216HW,2013-01-08 22:38:00,
2013-01-08 17:43:00,59.8,55.3,29.62,NNE,23,3.4,3.4,85,0.00,,,0.00,WUHU216HW,2013-01-08 22:43:00,
2013-01-08 17:48:00,59.2,55.1,29.62,NNE,23,1.3,3.4,86,0.00,,,0.00,WUHU216HW,2013-01-08 22:48:00,
2013-01-08 17:53:00,59.0,54.9,29.62,NE,45,3.8,3.8,86,0.00,,,0.00,WUHU216HW,2013-01-08 22:53:00,
2013-01-08 17:58:00,59.0,54.9,29.61,NNE,23,3.4,3.8,86,0.00,,,0.00,WUHU216HW,2013-01-08 22:58:00,
2013-01-08 18:03:00,58.9,54.7,29.61,NNE,23,6.9,6.9,86,0.00,,,0.00,WUHU216HW,2013-01-08 23:03:00,
2013-01-08 18:08:00,58.9,54.7,29.59,NNE,23,4.3,6.9,86,0.00,,,0.00,WUHU216HW,2013-01-08 23:08:00,
2013-01-08 18:13:00,58.7,54.6,29.59,NE,45,2.5,6.9,86,0.00,,,0.00,WUHU216HW,2013-01-08 23:13:00,
2013-01-08 18:18:00,58.5,54.6,29.59,ENE,68,4.3,5.8,87,0.00,,,0.00,WUHU216HW,2013-01-08 23:18:00,
2013-01-08 18:23:00,58.5,54.6,29.59,NE,45,4.0,5.8,87,0.00,,,0.00,WUHU216HW,2013-01-08 23:23:00,
2013-01-08 18:28:00,58.5,54.6,29.57,NE,45,1.3,4.3,87,0.00,,,0.00,WUHU216HW,2013-01-08 23:28:00,
2013-01-08 18:33:00,58.3,54.5,29.59,NE,45,3.4,4.0,87,0.00,,,0.00,WUHU216HW,2013-01-08 23:33:00,
2013-01-08 18:38:00,58.3,54.5,29.59,NE,45,1.8,3.4,87,0.00,,,0.00,WUHU216HW,2013-01-08 23:38:00,
2013-01-08 18:43:00,58.3,54.5,29.60,ENE,68,4.0,4.0,87,0.00,,,0.00,WUHU216HW,2013-01-08 23:43:00,
2013-01-08 18:48:00,58.3,54.5,29.59,NE,45,1.8,4.0,87,0.00,,,0.00,WUHU216HW,2013-01-08 23:48:00,
2013-01-08 18:53:00,58.3,54.5,29.59,NNE,23,4.0,4.0,87,0.00,,,0.00,WUHU216HW,2013-01-08 23:53:00,
2013-01-08 18:58:00,58.1,54.3,29.61,NNE,23,3.8,6.5,87,0.00,,,0.00,WUHU216HW,2013-01-08 23:58:00,
2013-01-08 19:03:00,58.1,54.3,29.61,NNE,23,5.1,6.5,87,0.00,,,0.00,WUHU216HW,2013-01-09 00:03:00,
2013-01-08 19:08:00,58.1,54.3,29.60,NNE,23,4.5,5.1,87,0.00,,,0.00,WUHU216HW,2013-01-09 00:08:00,
2013-01-08 19:13:00,58.1,54.3,29.58,NNE,23,7.2,7.2,87,0.00,,,0.00,WUHU216HW,2013-01-09 00:13:00,
2013-01-08 19:18:00,58.1,54.3,29.56,NNE,23,4.0,7.2,87,0.00,,,0.00,WUHU216HW,2013-01-09 00:18:00,
2013-01-08 19:23:00,58.1,54.3,29.56,NE,45,2.2,4.0,87,0.00,,,0.00,WUHU216HW,2013-01-09 00:23:00,
2013-01-08 19:28:00,58.0,54.1,29.56,North,0,2.5,4.0,87,0.00,,,0.00,WUHU216HW,2013-01-09 00:28:00,
2013-01-08 19:33:00,58.0,54.1,29.56,NNE,23,4.7,4.7,87,0.00,,,0.00,WUHU216HW,2013-01-09 00:33:00,
2013-01-08 19:38:00,58.0,54.1,29.56,NNE,23,5.4,5.4,87,0.00,,,0.00,WUHU216HW,2013-01-09 00:38:00,
2013-01-08 19:43:00,58.0,54.1,29.58,East,90,2.0,5.4,87,0.00,,,0.00,WUHU216HW,2013-01-09 00:43:00,
2013-01-08 19:48:00,58.0,54.1,29.57,NE,45,2.7,5.4,87,0.00,,,0.00,WUHU216HW,2013-01-09 00:48:00,
2013-01-08 19:53:00,58.0,54.1,29.55,NE,45,3.4,3.4,87,0.00,,,0.00,WUHU216HW,2013-01-09 00:53:00,
2013-01-08 19:58:00,58.0,54.1,29.56,NE,45,3.4,3.4,87,0.00,,,0.00,WUHU216HW,2013-01-09 00:58:00,
2013-01-08 20:03:00,57.8,53.9,29.55,NNE,23,1.8,3.4,87,0.00,,,0.00,WUHU216HW,2013-01-09 01:03:00,
2013-01-08 20:08:00,57.8,53.9,29.55,NNE,23,4.0,4.0,87,0.00,,,0.00,WUHU216HW,2013-01-09 01:08:00,
2013-01-08 20:13:00,57.8,53.9,29.55,NE,45,1.8,4.0,87,0.00,,,0.00,WUHU216HW,2013-01-09 01:13:00,
2013-01-08 20:18:00,57.8,53.9,29.55,NNE,23,3.8,4.0,87,0.00,,,0.00,WUHU216HW,2013-01-09 01:18:00,
2013-01-08 20:23:00,58.0,54.5,29.55,NE,45,3.6,3.8,88,0.00,,,0.00,WUHU216HW,2013-01-09 01:23:00,
2013-01-08 20:28:00,58.0,54.5,29.55,NE,45,0.4,3.8,88,0.00,,,0.00,WUHU216HW,2013-01-09 01:28:00,
2013-01-08 20:33:00,58.0,54.5,29.55,NNE,23,2.9,3.6,88,0.00,,,0.00,WUHU216HW,2013-01-09 01:33:00,
2013-01-08 20:38:00,58.1,54.3,29.56,NE,45,1.3,2.9,87,0.00,,,0.00,WUHU216HW,2013-01-09 01:38:00,
2013-01-08 20:43:00,58.1,54.3,29.57,NE,45,1.3,2.9,87,0.00,,,0.00,WUHU216HW,2013-01-09 01:43:00,
2013-01-08 20:48:00,58.3,54.8,29.56,North,0,0.0,1.3,88,0.00,,,0.00,WUHU216HW,2013-01-09 01:48:00,
2013-01-08 20:53:00,58.5,55.0,29.56,North,0,3.4,3.4,88,0.00,,,0.00,WUHU216HW,2013-01-09 01:53:00,
2013-01-08 20:58:00,58.5,55.0,29.56,ENE,68,1.1,3.4,88,0.00,,,0.00,WUHU216HW,2013-01-09 01:58:00,
2013-01-08 21:03:00,58.5,55.0,29.57,ENE,68,1.8,3.4,88,0.00,,,0.00,WUHU216HW,2013-01-09 02:03:00,
2013-01-08 21:08:00,58.7,55.2,29.56,North,0,0.0,1.8,88,0.00,,,0.00,WUHU216HW,2013-01-09 02:08:00,
2013-01-08 21:13:00,58.7,55.2,29.55,ENE,68,0.7,1.8,88,0.00,,,0.00,WUHU216HW,2013-01-09 02:13:00,
2013-01-08 21:18:00,58.7,55.2,29.56,NE,45,2.2,2.2,88,0.00,,,0.00,WUHU216HW,2013-01-09 02:18:00,
2013-01-08 21:23:00,58.7,55.2,29.54,North,0,0.0,2.2,88,0.00,,,0.00,WUHU216HW,2013-01-09 02:23:00,
2013-01-08 21:28:00,58.9,55.4,29.53,ESE,113,0.4,2.2,88,0.00,,,0.00,WUHU216HW,2013-01-09 02:28:00,
2013-01-08 21:33:00,59.0,55.5,29.53,North,0,0.0,0.4,88,0.00,,,0.00,WUHU216HW,2013-01-09 02:33:00,
2013-01-08 21:38:00,59.0,55.5,29.52,NNE,23,0.2,0.4,88,0.00,,,0.00,WUHU216HW,2013-01-09 02:38:00,
2013-01-08 21:43:00,59.0,55.5,29.53,North,0,2.5,2.5,88,0.00,,,0.00,WUHU216HW,2013-01-09 02:43:00,
2013-01-08 21:48:00,59.0,55.5,29.53,North,0,0.0,2.5,88,0.00,,,0.00,WUHU216HW,2013-01-09 02:48:00,
2013-01-08 21:53:00,59.2,55.7,29.54,North,0,0.0,2.5,88,0.00,,,0.00,WUHU216HW,2013-01-09 02:53:00,
2013-01-08 21:58:00,59.4,55.9,29.54,North,0,0.0,0.0,88,0.00,,,0.00,WUHU216HW,2013-01-09 02:58:00,
2013-01-08 22:03:00,59.4,55.9,29.54,North,0,0.0,0.0,88,0.00,,,0.00,WUHU216HW,2013-01-09 03:03:00,
2013-01-08 22:08:00,59.4,55.9,29.54,North,0,0.0,0.0,88,0.00,,,0.00,WUHU216HW,2013-01-09 03:08:00,
2013-01-08 22:13:00,59.4,55.9,29.54,North,0,0.0,0.0,88,0.00,,,0.00,WUHU216HW,2013-01-09 03:13:00,
2013-01-08 22:18:00,59.4,55.9,29.54,North,0,0.0,0.0,88,0.00,,,0.00,WUHU216HW,2013-01-09 03:18:00,
2013-01-08 22:23:00,59.4,55.9,29.54,North,0,0.0,0.0,88,0.00,,,0.00,WUHU216HW,2013-01-09 03:23:00,
2013-01-08 22:28:00,59.4,55.9,29.54,North,0,0.0,0.0,88,0.00,,,0.00,WUHU216HW,2013-01-09 03:28:00,
2013-01-08 22:33:00,59.4,55.9,29.55,North,0,0.0,0.0,88,0.00,,,0.00,WUHU216HW,2013-01-09 03:33:00,
2013-01-08 22:38:00,59.4,55.9,29.55,North,0,0.0,0.0,88,0.00,,,0.00,WUHU216HW,2013-01-09 03:38:00,
2013-01-08 22:43:00,59.4,55.9,29.54,North,0,0.0,0.0,88,0.00,,,0.00,WUHU216HW,2013-01-09 03:43:00,
2013-01-08 22:48:00,59.4,55.9,29.54,North,0,0.0,0.0,88,0.00,,,0.00,WUHU216HW,2013-01-09 03:48:00,
2013-01-08 22:53:00,59.4,55.9,29.55,North,0,0.0,0.0,88,0.00,,,0.00,WUHU216HW,2013-01-09 03:53:00,
2013-01-08 22:58:00,59.6,56.1,29.55,North,0,0.0,0.0,88,0.00,,,0.00,WUHU216HW,2013-01-09 03:58:00,
2013-01-08 23:03:00,59.6,56.1,29.54,North,0,0.0,0.0,88,0.00,,,0.00,WUHU216HW,2013-01-09 04:03:00,
2013-01-08 23:08:00,59.8,56.3,29.54,North,0,0.0,0.0,88,0.00,,,0.00,WUHU216HW,2013-01-09 04:08:00,
2013-01-08 23:13:00,59.9,56.4,29.54,North,0,0.0,0.0,88,0.00,,,0.00,WUHU216HW,2013-01-09 04:13:00,
2013-01-08 23:18:00,59.9,56.4,29.53,North,0,0.0,0.0,88,0.00,,,0.00,WUHU216HW,2013-01-09 04:18:00,
2013-01-08 23:23:00,60.1,56.6,29.54,North,0,0.0,0.0,88,0.00,,,0.00,WUHU216HW,2013-01-09 04:23:00,
2013-01-08 23:28:00,60.1,56.6,29.55,North,0,0.0,0.0,88,0.00,,,0.00,WUHU216HW,2013-01-09 04:28:00,
2013-01-08 23:33:00,60.1,56.6,29.54,North,0,0.0,0.0,88,0.00,,,0.00,WUHU216HW,2013-01-09 04:33:00,
2013-01-08 23:38:00,60.1,56.6,29.54,North,0,0.0,0.0,88,0.00,,,0.00,WUHU216HW,2013-01-09 04:38:00,
2013-01-08 23:43:00,60.3,56.8,29.54,North,0,0.0,0.0,88,0.00,,,0.00,WUHU216HW,2013-01-09 04:43:00,
2013-01-08 23:48:00,60.3,56.8,29.52,North,0,0.0,0.0,88,0.00,,,0.00,WUHU216HW,2013-01-09 04:48:00,
2013-01-08 23:53:00,60.5,57.0,29.53,North,0,0.0,0.0,88,0.00,,,0.00,WUHU216HW,2013-01-09 04:53:00,
2013-01-08 23:58:00,60.5,57.0,29.52,North,0,0.0,0.0,88,0.00,,,0.00,WUHU216HW,2013-01-09 04:58:00,